Lexington Weather

Lexington, Massachusetts, USA

69°F
6/18/2024 2:08am 
  • Lexington Conditions: Clear
  • Temperature: 68.7°F / 20.4°CColder 0.6°F than last hour.
  • Dew Point: 62.6°FIncreased 0.5°Fsince last hour.
  • Relative Humidity: 81%Increased 3.0% since last hour.
  • Wind: Calm, 10-min avg: Calm, gust: 3 mph
  • Barometer: 30.09 in Steady
  • Visibility: 10 miles
  • Rain Today: 0.00 in
  •   
Southeast Middlesex County, MA - Heat Advisory - Excessive Heat Watch
 - SEE ALL NEARBY ALERTS -

Regional Weather Roundup
for Boston, MA

        
000
ASUS41 KBOX 160610
RWRBOX

REGIONAL WEATHER ROUNDUP
NATIONAL WEATHER SERVICE BOSTON/NORTON MA
200 AM EDT SUN JUN 16 2024

NOTE:  "FAIR" INDICATES FEW OR NO CLOUDS BELOW 12,000 FEET WITH NO 
SIGNIFICANT WEATHER AND/OR OBSTRUCTIONS TO VISIBILITY.

MAZALL-160700-
EASTERN MASSACHUSETTS
  
CITY           SKY/WX    TMP DP  RH WIND       PRES   REMARKS
BOSTON         CLEAR     60  42  51 N8        30.16R                  
6HR MIN TEMP:  60; 6HR MAX TEMP:  72;                                

BEVERLY        CLEAR     51  43  74 NW6       30.15R                  
LAWRENCE       CLEAR     54  43  66 NE5       30.18R                  
BEDFORD        CLEAR     49  44  83 CALM      30.16R                  
NORWOOD        CLEAR     53  49  86 CALM      30.16R                  
MARSHFIELD     PTCLDY    57  48  72 N5        30.15R                  
PLYMOUTH       CLEAR     55  49  80 N5        30.14R                  
TAUNTON        CLEAR     50  47  89 CALM      30.15R                  
NEW BEDFORD    CLEAR     53  52  96 CALM      30.14R                  
$$

MAZALL-160700-
CAPE COD AND THE ISLANDS
  
CITY           SKY/WX    TMP DP  RH WIND       PRES   REMARKS
FALMOUTH       CLEAR     55  48  76 N6        30.14R                  
HYANNIS        CLEAR     51  50  96 N3        30.13R                  
CHATHAM        CLEAR     54  49  83 CALM      30.13R                  
PROVINCETOWN   CLEAR     62  48  60 N12G17    30.15R                  
NANTUCKET      CLEAR     55  52  89 N3          N/A                   
MARTHAS VNYRD  PTCLDY    47  47 100 NW5       30.13S FOG              
$$
 
MAZALL-160700-
CENTRAL AND WESTERN MASSACHUSETTS
  
CITY           SKY/WX    TMP DP  RH WIND       PRES   REMARKS
WORCESTER      CLEAR     58  39  49 N9        30.18R                  
6HR MIN TEMP:  58; 6HR MAX TEMP:  68;                                

FITCHBURG      CLEAR     53  43  68 N5        30.18R                  
ORANGE         CLEAR     50  46  86 E3        30.20R                  
SPRINGFIELD    CLEAR     55  44  68 NE6       30.15R                  
WESTFIELD      CLEAR     56  47  71 N5        30.17S                  
NORTH ADAMS    PTCLDY    50  46  86 CALM      30.20R                  
PITTSFIELD     PTCLDY    50  44  80 CALM      30.18R                  
$$
 
RIZALL-160700-
RHODE ISLAND
  
CITY           SKY/WX    TMP DP  RH WIND       PRES   REMARKS
PROVIDENCE     CLEAR     59  44  57 N6        30.16R                  
6HR MIN TEMP:  59; 6HR MAX TEMP:  72;                                

NEWPORT        CLEAR     57  52  83 N6        30.15R                  
BLOCK ISLAND   CLEAR     60  51  72 N6        30.14R                  
SMITHFIELD     CLEAR     54  45  71 N6        30.17R                  
WESTERLY       CLEAR     58  48  69 N5        30.14R                  
$$
 
CTZALL-160700-
CONNECTICUT
  
CITY           SKY/WX    TMP DP  RH WIND       PRES   REMARKS
BRADLEY INTL   CLEAR     58  48  69 N5        30.17R                  
6HR MIN TEMP:  58; 6HR MAX TEMP:  76;                                

HARTFORD       CLEAR     61  49  64 N8        30.15R                  
PLAINVILLE     CLEAR     60  49  67 N7        30.16R                  
BRIDGEPORT     PTCLDY    65  49  56 N9        30.13R                  
DANBURY        PTCLDY    55  49  80 CALM      30.16R                  
GROTON         CLEAR     61  49  64 N9        30.13S                  
NEW HAVEN      PTCLDY    65  51  60 NE9       30.13R                  
CHESTER        CLEAR     59  50  72 N6        30.15R                  
MERIDEN        CLEAR     63  46  54 N6        30.15R                  
WILLIMANTIC    CLEAR     54  51  90 NE5       30.17R                  
OXFORD         PTCLDY    60  47  61 NE10      30.16S                  
$$

MEZ002-015-021-024-NHZ003-005-008-011-012-014-VTZ005-008-160700-
NORTHERN NEW ENGLAND
  
CITY           SKY/WX    TMP DP  RH WIND       PRES   REMARKS
PORTLAND ME    CLEAR     52  42  69 NW5       30.15R                  
6HR MIN TEMP:  52; 6HR MAX TEMP:  65;                                

BANGOR ME      CLEAR     51  40  65 NW7       30.12R                  
CONCORD NH     CLEAR     46  43  89 CALM      30.17R                  
MANCHESTER NH  CLEAR     52  42  69 CALM      30.15R                  
NASHUA NH      CLEAR     53  48  83 NW3       30.18R                  
PORTSMOUTH NH  CLEAR     54  45  71 CALM      30.15R                  
JAFFREY NH     CLEAR     48  41  76 CALM      30.19R                  
KEENE NH       CLEAR     46  45  96 CALM      30.20R                  
BURLINGTON VT  CLEAR     49  44  83 E3        30.19R                  
MT. WASHINGTON CLEAR     36  14  41 N21         N/A  WCI  24          
$$

NYZ052-076-160700-
EASTERN NEW YORK
  
CITY           SKY/WX    TMP DP  RH WIND       PRES   REMARKS
ALBANY         PTCLDY    55  43  63 NW5       30.19S                  
6HR MIN TEMP:  55; 6HR MAX TEMP:  71;                                

NEW YORK CITY  PTCLDY    68  49  50 NE6       30.12S                  
6HR MIN TEMP:  68; 6HR MAX TEMP:  78;                                

$$
 
ANZALL-160700-
MARINE OBSERVATIONS
  
STATION/POSITION TIME  TEMP    WIND        PRES    VSBY  WAVE
                       AIR SEA DIR/SP/G                  HT/PER
                 (UTC) (F)     (DEG/KT/KT) (MB)    (MI)  (FT/S)
BOSTON BUOY      0540   62 63  340/ 12/ 14 1021.3R
BUZZARDS BAY     0500   63     110/  5/  5 1020.4R
NANTUCKET SOUND  0540   67 67  360/  8/ 12 1019.8R
MASS BAY-STELLWA 0404   63 62  340/ 10/ 12 1020.2R  1 7/8  2/11
ISLE OF SHOALS   0500   60     330/  9/ 10 1020.0R
S OF BLOCK IS    0526      66                N/A           4/ 8
$$

......................KEY.........................
  SKY/WX - SKY CONDITION/PRESENT WEATHER
  TMP    - TEMPERATURE IN FAHRENHEIT
  DWPT   - DEWPOINT IN FAHRENHEIT
  RH     - RELATIVE HUMIDITY IN PERCENT
  WIND   - DIRECTION AND SPEED IN MPH
  PRES   - MEAN SEA LEVEL PRESSURE IN INCHES OF HG
  WCI    - WIND CHILL INDEX
  VSB    - VISIBILITY IN MILES
  HX     - HEAT INDEX
  TC     - TEMPERATURE IN CELSIUS
  VRB    - VARIABLE WIND DIRECTION
  N/A    - NOT AVAILABLE
  
      

Other recent Regional Weather Roundups

Tue Jun 18, 1:10am EDT

Tue Jun 18, 12:10am EDT

Mon Jun 17, 11:10pm EDT

Mon Jun 17, 10:10pm EDT

Mon Jun 17, 9:10pm EDT

Mon Jun 17, 8:10pm EDT

Mon Jun 17, 7:10pm EDT

Mon Jun 17, 6:10pm EDT

Mon Jun 17, 5:10pm EDT

Mon Jun 17, 4:10pm EDT

Mon Jun 17, 3:10pm EDT

Mon Jun 17, 2:10pm EDT

Mon Jun 17, 1:10pm EDT

Mon Jun 17, 12:10pm EDT

Mon Jun 17, 11:10am EDT

Mon Jun 17, 10:10am EDT

Mon Jun 17, 9:10am EDT

Mon Jun 17, 8:10am EDT

Mon Jun 17, 7:10am EDT

Mon Jun 17, 6:10am EDT

Mon Jun 17, 5:10am EDT

Mon Jun 17, 4:10am EDT

Mon Jun 17, 3:10am EDT

Mon Jun 17, 2:10am EDT

Mon Jun 17, 1:10am EDT

Mon Jun 17, 12:10am EDT

Sun Jun 16, 11:10pm EDT

Sun Jun 16, 10:10pm EDT

Sun Jun 16, 9:10pm EDT

Sun Jun 16, 8:10pm EDT

Sun Jun 16, 7:10pm EDT

Sun Jun 16, 6:10pm EDT

Sun Jun 16, 5:10pm EDT

Sun Jun 16, 4:10pm EDT

Sun Jun 16, 3:10pm EDT

Sun Jun 16, 2:10pm EDT

Sun Jun 16, 1:10pm EDT

Sun Jun 16, 12:10pm EDT

Sun Jun 16, 11:10am EDT

Sun Jun 16, 10:10am EDT

Sun Jun 16, 9:10am EDT

Sun Jun 16, 8:10am EDT

Sun Jun 16, 7:10am EDT

Sun Jun 16, 6:10am EDT

Sun Jun 16, 5:10am EDT

Sun Jun 16, 4:10am EDT

Sun Jun 16, 3:10am EDT

Sun Jun 16, 1:10am EDT

Sun Jun 16, 12:10am EDT

Sat Jun 15, 11:10pm EDT

Sat Jun 15, 10:10pm EDT

Sat Jun 15, 9:10pm EDT

Sat Jun 15, 8:10pm EDT

Sat Jun 15, 7:10pm EDT

Sat Jun 15, 6:10pm EDT

Sat Jun 15, 5:10pm EDT

Sat Jun 15, 4:10pm EDT

Sat Jun 15, 3:10pm EDT

Sat Jun 15, 2:10pm EDT

Sat Jun 15, 1:10pm EDT

Sat Jun 15, 12:10pm EDT

Sat Jun 15, 11:10am EDT

Sat Jun 15, 10:10am EDT

Sat Jun 15, 9:10am EDT

Sat Jun 15, 8:10am EDT

Sat Jun 15, 7:10am EDT

Sat Jun 15, 6:10am EDT

Sat Jun 15, 5:10am EDT

Sat Jun 15, 4:10am EDT

Sat Jun 15, 3:10am EDT

Sat Jun 15, 2:10am EDT

Sat Jun 15, 1:10am EDT

Sat Jun 15, 12:10am EDT

Fri Jun 14, 11:10pm EDT

Fri Jun 14, 10:10pm EDT

Fri Jun 14, 9:10pm EDT

Fri Jun 14, 8:10pm EDT

Fri Jun 14, 7:10pm EDT

Fri Jun 14, 6:10pm EDT

Fri Jun 14, 5:10pm EDT

Fri Jun 14, 4:10pm EDT

Fri Jun 14, 3:10pm EDT

Fri Jun 14, 2:10pm EDT

Fri Jun 14, 1:10pm EDT

Fri Jun 14, 12:10pm EDT

Fri Jun 14, 11:10am EDT

Fri Jun 14, 10:10am EDT

Fri Jun 14, 9:10am EDT

Fri Jun 14, 8:10am EDT

Fri Jun 14, 7:10am EDT

Fri Jun 14, 6:10am EDT

Fri Jun 14, 5:10am EDT

Fri Jun 14, 4:10am EDT

Fri Jun 14, 3:10am EDT

Fri Jun 14, 2:10am EDT

Fri Jun 14, 1:10am EDT

Fri Jun 14, 12:10am EDT

Thu Jun 13, 11:10pm EDT

Thu Jun 13, 10:10pm EDT

Thu Jun 13, 9:10pm EDT

Thu Jun 13, 8:10pm EDT

Thu Jun 13, 7:10pm EDT

Thu Jun 13, 6:10pm EDT

Thu Jun 13, 5:10pm EDT

Thu Jun 13, 4:10pm EDT

Thu Jun 13, 3:10pm EDT

Thu Jun 13, 2:10pm EDT

Thu Jun 13, 1:10pm EDT

Thu Jun 13, 12:10pm EDT

Thu Jun 13, 11:10am EDT

Thu Jun 13, 10:10am EDT

Thu Jun 13, 9:10am EDT

Thu Jun 13, 8:10am EDT

Thu Jun 13, 7:10am EDT

Thu Jun 13, 6:10am EDT

Thu Jun 13, 5:10am EDT

Thu Jun 13, 4:10am EDT

Thu Jun 13, 3:10am EDT

Thu Jun 13, 2:10am EDT

Thu Jun 13, 1:10am EDT

Thu Jun 13, 12:10am EDT

Wed Jun 12, 11:10pm EDT

Wed Jun 12, 10:10pm EDT

Wed Jun 12, 9:10pm EDT

Wed Jun 12, 8:10pm EDT

Wed Jun 12, 7:10pm EDT

Wed Jun 12, 6:10pm EDT

Wed Jun 12, 5:10pm EDT

Wed Jun 12, 4:10pm EDT

Wed Jun 12, 3:10pm EDT

Wed Jun 12, 2:10pm EDT

Wed Jun 12, 1:10pm EDT

Wed Jun 12, 12:10pm EDT

Wed Jun 12, 11:10am EDT

Wed Jun 12, 10:10am EDT

Wed Jun 12, 9:10am EDT

Wed Jun 12, 8:10am EDT

Wed Jun 12, 7:10am EDT

Wed Jun 12, 6:10am EDT

Wed Jun 12, 5:10am EDT

Wed Jun 12, 4:10am EDT

Wed Jun 12, 3:10am EDT

Wed Jun 12, 2:10am EDT

Wed Jun 12, 1:10am EDT

Wed Jun 12, 12:10am EDT

Tue Jun 11, 11:10pm EDT

Tue Jun 11, 10:10pm EDT

Tue Jun 11, 9:10pm EDT

Tue Jun 11, 8:10pm EDT

Tue Jun 11, 7:10pm EDT

Tue Jun 11, 6:10pm EDT

Tue Jun 11, 5:10pm EDT

Tue Jun 11, 4:10pm EDT

Tue Jun 11, 3:10pm EDT

Tue Jun 11, 2:10pm EDT

Tue Jun 11, 1:10pm EDT

Tue Jun 11, 12:10pm EDT

Tue Jun 11, 11:10am EDT

Tue Jun 11, 10:10am EDT

Tue Jun 11, 9:10am EDT

Tue Jun 11, 8:10am EDT

Tue Jun 11, 7:10am EDT

Tue Jun 11, 6:10am EDT

Tue Jun 11, 5:10am EDT

Tue Jun 11, 4:10am EDT

Tue Jun 11, 3:10am EDT

Tue Jun 11, 2:10am EDT